(257998) = 2001 EO8 = 2006 SC304

Discovered at Anderson Mesa on 2001-03-02 by LONEOS.

Orbit

Orbit type: Main Belt

Note: WebGL enabled browser required.

epoch2023-09-13.0
epoch JD2460200.5
perihelion date2022-08-10.42551
perihelion JD2459801.92551
argument of perihelion (°)100.03580
ascending node (°)86.21842
inclination (°)1.80663
eccentricity0.1244661
perihelion distance (AU)2.0369613
Tisserand w.r.t. Jupiter3.6
ΔV w.r.t. Earth (km/sec)8.9
semimajor axis (AU)2.3265363
mean anomaly (°)110.70025
mean daily motion (°/day)0.27774040
aphelion distance (AU)2.616
period (years)3.55
P-vector [x]-0.99355990
P-vector [y]-0.11232884
P-vector [z]-0.01486433
Q-vector [x]0.10885367
Q-vector [y]-0.90983090
Q-vector [z]-0.40044800
absolute magnitude17.35
phase slope0.15
uncertainty0
referenceMPEC 2023-N34
observations used585
oppositions13
arc length (days)8163
first opposition used2001
last opposition used2023
residual rms (arc-secs)0.69
perturbers coarse indicatorM-v
perturbers precise indicator003Ek
first observation date used2001-03-02.0
last observation date used2023-07-08.0
computer nameMPCLINUX
JD of orbit computation2456581.604986
perihelion JD uncertainty (days)1.0807E-04
argument of perihelion uncertainty (°)2.1969E-04
ascending node uncertainty (°)2.1815E-04
inclination uncertainty (°)4.9358E-06
eccentricity uncertainty 7.1679E-08
perihelion distance uncertainty (AU)1.5993E-07
Minimum Orbit Intersection Distances (in AU)
for orbit epoch: 2460000.5, reference: E2023-MF4
Mercury1.62009
Venus1.3169
Earth1.03971
Mars0.38454
Jupiter2.33586
Saturn6.63558
Uranus16.3826
Neptune27.2452

Observations

586 total observations over interval: 2001 03 02.29587 – 2023 07 08.343650
These data are available for download (format description).

Date (UT) J2000 RA J2000 Dec Magn Location Ref
2001 03 02.29587 11 47 19.58 +05 05 47.7 19.2 R 699 – Lowell Observatory-LONEOS MPS 28146
2001 03 02.32082 11 47 18.22 +05 05 57.0   699 – Lowell Observatory-LONEOS MPS 28146
2001 03 02.34579 11 47 16.98 +05 06 06.7   699 – Lowell Observatory-LONEOS MPS 28146
2001 03 02.37077 11 47 15.67 +05 06 14.8   699 – Lowell Observatory-LONEOS MPS 28146
2001 03 03.31753 11 46 29.94 +05 11 57.1 19.4   704 – Lincoln Laboratory ETS, New Mexico MPS 28146
2001 03 03.33065 11 46 29.19 +05 12 01.5 19.2   704 – Lincoln Laboratory ETS, New Mexico MPS 28146
2001 03 03.34378 11 46 28.43 +05 12 06.4 19.2   704 – Lincoln Laboratory ETS, New Mexico MPS 28146
2001 03 03.35692 11 46 27.85 +05 12 11.7 19.1   704 – Lincoln Laboratory ETS, New Mexico MPS 28146
2001 03 19.25338 11 32 17.30 +06 48 13.9 19.1   704 – Lincoln Laboratory ETS, New Mexico MPS 28146
2001 03 19.28052 11 32 15.84 +06 48 21.3 19.1   704 – Lincoln Laboratory ETS, New Mexico MPS 28146
2001 03 19.29441 11 32 15.03 +06 48 27.5 19.2   704 – Lincoln Laboratory ETS, New Mexico MPS 28146
2001 03 19.30759 11 32 14.25 +06 48 31.6 19.5   704 – Lincoln Laboratory ETS, New Mexico MPS 28146
2001 03 27.44714 11 25 14.92 +07 29 42.5 20.1   608 – Haleakala-AMOS MPS 28146
2001 03 27.45815 11 25 14.35 +07 29 45.9 20.2   608 – Haleakala-AMOS MPS 28146
2001 03 27.46855 11 25 13.83 +07 29 47.5 20.4   608 – Haleakala-AMOS MPS 28146
2006 09 27.24125 01 25 00.48 +05 59 34.1 20.1 V G96 – Mt. Lemmon Survey MPS 182998
2006 09 27.24590 01 25 00.12 +05 59 31.9 21.1 V G96 – Mt. Lemmon Survey MPS 182998
2006 09 27.25054 01 24 59.97 +05 59 30.6 20.3 V G96 – Mt. Lemmon Survey MPS 182998
2006 09 27.25515 01 24 59.72 +05 59 29.1 20.6 V G96 – Mt. Lemmon Survey MPS 182998
2006 10 01.36198 01 21 24.80 +05 37 32.6   691 – Steward Observatory, Kitt Peak-Spacewatch MPS 182998
2006 10 01.37932 01 21 23.84 +05 37 26.7   691 – Steward Observatory, Kitt Peak-Spacewatch MPS 182998
2006 10 01.39665 01 21 22.86 +05 37 21.9   691 – Steward Observatory, Kitt Peak-Spacewatch MPS 182998
2007 12 05.50027 10 21 46.51 +11 44 35.6 21.3 V G96 – Mt. Lemmon Survey MPS 239311
2007 12 05.50335 10 21 46.65 +11 44 34.9 21.6 V G96 – Mt. Lemmon Survey MPS 239311
2007 12 05.50642 10 21 46.87 +11 44 33.9 20.9 V G96 – Mt. Lemmon Survey MPS 239311
2007 12 05.50951 10 21 47.05 +11 44 33.3 21.7 V G96 – Mt. Lemmon Survey MPS 239311
2008 02 02.23905 10 37 50.32 +11 40 55.7 19.8 V 691 – Steward Observatory, Kitt Peak-Spacewatch MPS 236133
2008 02 02.25667 10 37 49.63 +11 41 01.3 19.6 V 691 – Steward Observatory, Kitt Peak-Spacewatch MPS 236133
2008 02 02.27432 10 37 48.94 +11 41 06.9 19.8 V 691 – Steward Observatory, Kitt Peak-Spacewatch MPS 236133
2008 02 09.23263 10 32 48.58 +12 19 55.0 19.6 V 691 – Steward Observatory, Kitt Peak-Spacewatch MPS 237369
2008 02 09.25028 10 32 47.70 +12 20 01.4 19.6 V 691 – Steward Observatory, Kitt Peak-Spacewatch MPS 237369
2008 02 09.26538 10 32 46.92 +12 20 06.8 19.6 V 691 – Steward Observatory, Kitt Peak-Spacewatch MPS 237369
2008 02 14.93042 10 27 54.91 +12 54 34.0 18.8 R 069 – Baldone MPS 252716
2008 02 14.93693 10 27 54.56 +12 54 35.8 19.0 R 069 – Baldone MPS 239311
2008 02 15.02295 10 27 49.72 +12 55 08.3 18.6 R 069 – Baldone MPS 252716
2008 02 15.90404 10 27 01.72 +13 00 37.0 19.2 R 069 – Baldone MPS 252716
2008 02 15.93932 10 26 59.73 +13 00 49.6 19.1 R 069 – Baldone MPS 252716
2008 02 24.43936 10 18 53.42 +13 53 02.8 19.3 V G96 – Mt. Lemmon Survey MPS 239311
2008 02 24.44593 10 18 52.99 +13 53 05.1 19.2 V G96 – Mt. Lemmon Survey MPS 239311
2008 02 24.45249 10 18 52.63 +13 53 07.6 19.1 V G96 – Mt. Lemmon Survey MPS 239311
2008 02 24.45905 10 18 52.23 +13 53 09.8 18.8 V G96 – Mt. Lemmon Survey MPS 239311
2008 02 26.16613 10 17 13.81 +14 03 12.3 19.0 r 699 – Lowell Observatory-LONEOS MPS 239311
2008 02 26.19093 10 17 12.25 +14 03 21.4 19.4 r 699 – Lowell Observatory-LONEOS MPS 239311
2008 02 26.21570 10 17 10.88 +14 03 29.8 19.0 r 699 – Lowell Observatory-LONEOS MPS 239311
2008 02 26.24052 10 17 09.29 +14 03 37.6 19.1 r 699 – Lowell Observatory-LONEOS MPS 239311
2008 02 26.39939 10 16 59.70 +14 04 33.7 19.2 V G96 – Mt. Lemmon Survey MPS 239311
2008 02 26.40668 10 16 59.26 +14 04 36.2 19.3 V G96 – Mt. Lemmon Survey MPS 239311
2008 02 26.41398 10 16 58.83 +14 04 38.5 19.4 V G96 – Mt. Lemmon Survey MPS 239311
2008 02 27.33685 10 16 05.77 +14 09 58.1 19.8   704 – Lincoln Laboratory ETS, New Mexico MPS 239311
2008 02 27.34863 10 16 05.05 +14 10 01.0 19.8   704 – Lincoln Laboratory ETS, New Mexico MPS 239311
2008 02 27.36034 10 16 04.43 +14 10 04.5 19.6   704 – Lincoln Laboratory ETS, New Mexico MPS 239311
2008 02 27.37206 10 16 03.65 +14 10 09.8 19.3   704 – Lincoln Laboratory ETS, New Mexico MPS 239311
2008 02 27.38377 10 16 03.06 +14 10 11.5 19.8   704 – Lincoln Laboratory ETS, New Mexico MPS 239311
2008 02 28.29291 10 15 10.94 +14 15 21.5 18.6 V G96 – Mt. Lemmon Survey MPS 239311
2008 02 28.30333 10 15 10.29 +14 15 24.9 18.6 V G96 – Mt. Lemmon Survey MPS 239311
2008 02 28.31380 10 15 09.68 +14 15 28.5 18.6 V G96 – Mt. Lemmon Survey MPS 239311
2008 02 28.32416 10 15 09.07 +14 15 32.0 18.7 V G96 – Mt. Lemmon Survey MPS 239311
2008 03 02.95460 10 11 44.82 +14 35 01.3 19.7 R 130 – Lumezzane MPS 240607
2008 03 02.95997 10 11 44.52 +14 35 04.8 19.9 R 130 – Lumezzane MPS 240607
2008 03 03.19582 10 11 31.88 +14 36 20.3 21.1 V 703 – Catalina Sky Survey MPS 240607
2008 03 03.20224 10 11 31.45 +14 36 21.3 20.7 V 703 – Catalina Sky Survey MPS 240607
2008 03 03.20874 10 11 31.16 +14 36 23.6 20.4 V 703 – Catalina Sky Survey MPS 240607
2008 03 03.21519 10 11 30.80 +14 36 25.3 20.4 V 703 – Catalina Sky Survey MPS 240607
2008 03 10.31340 10 05 25.90 +15 08 51.0 19.5 V 703 – Catalina Sky Survey MPS 241966
2008 03 10.31892 10 05 25.65 +15 08 52.3 19.5 V 703 – Catalina Sky Survey MPS 241966
2008 03 10.32450 10 05 25.33 +15 08 53.0 19.4 V 703 – Catalina Sky Survey MPS 241966
2008 03 10.33004 10 05 25.04 +15 08 54.5 19.1 V 703 – Catalina Sky Survey MPS 241966
2008 03 12.21656 10 03 59.34 +15 16 03.4 19.6   704 – Lincoln Laboratory ETS, New Mexico MPS 241966
2008 03 12.22767 10 03 58.76 +15 16 05.0 20.1   704 – Lincoln Laboratory ETS, New Mexico MPS 241966
2008 03 12.23883 10 03 58.22 +15 16 08.5 20.0   704 – Lincoln Laboratory ETS, New Mexico MPS 241966
2008 03 12.24997 10 03 57.74 +15 16 11.3 20.2   704 – Lincoln Laboratory ETS, New Mexico MPS 241966
2008 03 12.26143 10 03 57.12 +15 16 13.1 19.9   704 – Lincoln Laboratory ETS, New Mexico MPS 241966
2008 03 29.20648 09 55 46.20 +15 48 21.7 20.4 V G96 – Mt. Lemmon Survey MPS 244563
2008 03 29.21644 09 55 46.05 +15 48 21.6 20.8 V G96 – Mt. Lemmon Survey MPS 244563
2008 03 29.22652 09 55 45.91 +15 48 22.1 21.0 V G96 – Mt. Lemmon Survey MPS 244563
2008 03 29.23652 09 55 45.76 +15 48 21.7 20.7 V G96 – Mt. Lemmon Survey MPS 244563
2008 05 08.24166 10 13 16.14 +13 31 35.1 20.6 V G96 – Mt. Lemmon Survey MPS 248907
2008 05 08.24924 10 13 16.60 +13 31 31.5 20.6 V G96 – Mt. Lemmon Survey MPS 248907
2008 05 08.25671 10 13 17.04 +13 31 29.1 20.5 V G96 – Mt. Lemmon Survey MPS 248907
2008 05 08.26454 10 13 17.47 +13 31 25.8 20.6 V G96 – Mt. Lemmon Survey MPS 248907
2010 11 01.32025 04 50 23.40 +21 14 47.2   691 – Steward Observatory, Kitt Peak-Spacewatch MPS 353671
2010 11 01.33796 04 50 22.69 +21 14 46.7   691 – Steward Observatory, Kitt Peak-Spacewatch MPS 353671
2010 11 01.35566 04 50 22.07 +21 14 45.9   691 – Steward Observatory, Kitt Peak-Spacewatch MPS 353671
2010 11 07.557846 04 46 08.444 +21 09 35.86 21.37 g F51 – Pan-STARRS 1, Haleakala MPS 365374
2010 11 07.569389 04 46 07.874 +21 09 35.05 21.24 g F51 – Pan-STARRS 1, Haleakala MPS 365374
2010 11 11.40837 04 42 58.28 +21 05 26.2 20.5 V G96 – Mt. Lemmon Survey MPS 355194
2010 11 11.41420 04 42 57.96 +21 05 25.8 20.9 V G96 – Mt. Lemmon Survey MPS 355194
2010 11 11.41998 04 42 57.63 +21 05 25.2 21.2 V G96 – Mt. Lemmon Survey MPS 355194
2010 11 11.42579 04 42 57.20 +21 05 25.5 19.9 V G96 – Mt. Lemmon Survey MPS 355194
2010 11 16.535068 04 38 11.612 +20 58 52.20 20.34 i F51 – Pan-STARRS 1, Haleakala MPS 365374
2010 11 16.546692 04 38 10.898 +20 58 51.17 20.36 i F51 – Pan-STARRS 1, Haleakala MPS 365374
